Location: Haut Kerinec
(48.0623°N, 4.4081°W)
Time: 21:35:04
(UTC+00:00)

STARLINK-1254 - Pass Details

Date: 04 October 2020
Orbit: 548 x 551 km, 53.0° (Epoch: 26 October)

Event Time Altitude Azimuth Distance (km) Brightness Sun altitude
Exits shadow 04:07:19 11° 163° (SSE) 1,737 6.1 -22.9°
Drops below altitude 10° 04:07:33 10° 161° (SSE) 1,819 6.2 -22.9°
Sets 04:09:58 0° 150° (SSE) 2,709 7.3 -22.5°
